TimeEST,TemperatureF,Dew PointF,Humidity,Sea Level PressureIn,VisibilityMPH,Wind Direction,Wind SpeedMPH,Gust SpeedMPH,PrecipitationIn,Events,Conditions,WindDirDegrees,DateUTC
12:54 AM,30.0,28.0,92,30.00,10.0,Calm,Calm,-,N/A,,Clear,0,2013-12-02 05:54:00
1:54 AM,30.0,27.0,88,29.99,10.0,Calm,Calm,-,N/A,,Clear,0,2013-12-02 06:54:00
2:54 AM,28.9,27.0,92,29.97,9.0,Calm,Calm,-,N/A,,Clear,0,2013-12-02 07:54:00
3:34 AM,28.4,26.6,93,29.95,5.0,Calm,Calm,-,N/A,,Mostly Cloudy,0,2013-12-02 08:34:00
3:54 AM,30.0,28.0,92,29.96,9.0,Calm,Calm,-,N/A,,Mostly Cloudy,0,2013-12-02 08:54:00
4:54 AM,30.0,28.9,96,29.96,9.0,Calm,Calm,-,N/A,,Overcast,0,2013-12-02 09:54:00
5:54 AM,30.9,28.9,92,29.96,10.0,Calm,Calm,-,N/A,,Overcast,0,2013-12-02 10:54:00
6:54 AM,33.1,30.0,89,29.96,10.0,Calm,Calm,-,N/A,,Overcast,0,2013-12-02 11:54:00
7:54 AM,33.1,30.9,92,29.96,10.0,Calm,Calm,-,N/A,,Overcast,0,2013-12-02 12:54:00
8:54 AM,35.1,32.0,89,29.95,10.0,Calm,Calm,-,N/A,,Overcast,0,2013-12-02 13:54:00
9:54 AM,39.0,33.1,79,29.95,10.0,Calm,Calm,-,N/A,,Overcast,0,2013-12-02 14:54:00
10:54 AM,43.0,34.0,71,29.94,10.0,Calm,Calm,-,N/A,,Overcast,0,2013-12-02 15:54:00
11:54 AM,46.0,35.1,66,29.90,10.0,Calm,Calm,-,N/A,,Overcast,0,2013-12-02 16:54:00
12:54 PM,51.1,35.1,54,29.86,10.0,Calm,Calm,-,N/A,,Clear,0,2013-12-02 17:54:00
1:54 PM,54.0,37.0,53,29.82,10.0,WSW,3.5,-,N/A,,Overcast,240,2013-12-02 18:54:00
2:54 PM,54.0,37.0,53,29.81,10.0,Calm,Calm,-,N/A,,Overcast,0,2013-12-02 19:54:00
3:54 PM,54.0,37.0,53,29.81,10.0,ESE,5.8,-,N/A,,Overcast,110,2013-12-02 20:54:00
4:54 PM,53.1,37.0,55,29.81,10.0,ESE,4.6,-,N/A,,Overcast,110,2013-12-02 21:54:00
5:54 PM,51.1,37.9,61,29.83,10.0,SE,3.5,-,N/A,,Overcast,140,2013-12-02 22:54:00
6:54 PM,50.0,39.0,66,29.84,10.0,ESE,5.8,-,N/A,,Overcast,120,2013-12-02 23:54:00
7:54 PM,48.9,39.9,71,29.85,10.0,Calm,Calm,-,N/A,,Overcast,0,2013-12-03 00:54:00
8:54 PM,48.9,39.9,71,29.86,10.0,Calm,Calm,-,N/A,,Overcast,0,2013-12-03 01:54:00
9:54 PM,48.0,41.0,77,29.86,10.0,Calm,Calm,-,N/A,,Overcast,0,2013-12-03 02:54:00
10:47 PM,46.4,41.0,81,29.87,10.0,Calm,Calm,-,N/A,,Overcast,0,2013-12-03 03:47:00
10:54 PM,46.9,41.0,80,29.86,10.0,Calm,Calm,-,N/A,,Overcast,0,2013-12-03 03:54:00
11:09 PM,46.4,41.0,81,29.87,10.0,Calm,Calm,-,N/A,,Overcast,0,2013-12-03 04:09:00
11:54 PM,46.0,41.0,83,29.86,10.0,Calm,Calm,-,N/A,,Overcast,0,2013-12-03 04:54:00